[[{"header":{"parameterUnit":"m.s-1","parameterCategory":1,"la1":30.2991,"la2":30.254,"lo1":-89.0895,"lo2":-89.0444,"dy":0.0017,"dx":0.0017,"nx":28,"ny":28,"refTime":"2023-11-23T03:00:00:Z","depth":0,"parameterNumber":2,"parameterNumberName":"U-component_of_WINDS"},"data":[0,0,0,0,0,0,0,0,0,0,0,0,0,0,0,0,0,0,0,0,0,0,0,0,0,0,0,0,0,0,0,0,0,0,0,0,0,0,0,0,0,0,0,0,0,0,0,0,0,0,0,0,0,0,0,0,0,0,-3.0419,-3.042,0,-3.0483,-3.0483,-3.0484,-3.0411,-3.0408,-3.0406,-3.0403,-3.0468,-3.0472,-3.0476,0,0,0,0,0,0,0,0,0,0,0,0,0,-3.0234,-3.0238,-3.0419,-3.042,-3.0421,-3.0482,-3.0483,-3.0484,-3.0412,-3.0408,-3.0405,-3.0402,-3.0467,-3.0472,-3.0477,0,0,0,0,0,0,0,0,0,0,0,0,0,-3.0308,-3.0239,-3.0419,-3.0392,-3.039,-3.0482,-3.0483,-3.0484,-3.0412,-3.0408,-3.0404,-3.04,-3.0465,-3.0471,-3.0478,-3.06,0,0,-3.0497,-3.05,0,0,0,0,0,0,0,0,-3.0304,-3.0315,-3.0395,-3.0394,-3.0392,-3.0435,-3.0442,-3.0523,-3.0413,-3.0404,-3.0403,-3.0398,-3.046,-3.0467,-3.0488,-3.0603,-3.0605,-3.0498,-3.0502,-3.0504,-3.0506,0,0,0,0,0,0,0,-3.0299,-3.0311,-3.0444,-3.0396,-3.0394,-3.0376,-3.0382,-3.0457,-3.0454,-3.0404,-3.0399,-3.0408,-3.0459,-3.0482,-3.0489,-3.0606,-3.0498,-3.0503,-3.0507,-3.051,-3.0823,-3.0828,0,0,0,0,0,0,-3.0297,-3.0308,-3.0442,-3.0446,-3.0337,-3.0383,-3.0389,-3.0425,-3.0453,-3.0454,-3.0411,-3.0404,-3.0473,-3.0481,-3.0491,-3.0635,-3.0504,-3.051,-3.0514,-3.0819,-3.0824,-3.0829,0,0,0,0,0,0,-3.0293,-3.0309,-3.044,-3.0375,-3.0391,-3.039,-3.0431,-3.0429,-3.0452,-3.0458,-3.0458,-3.0435,-3.047,-3.0482,-3.0573,-3.0636,-3.0513,-3.0519,-3.0814,-3.0821,-3.0827,-3.0924,0,0,0,0,0,0,-3.0288,-3.0308,-3.0355,-3.0377,-3.0394,-3.0521,-3.0435,-3.0433,-3.0463,-3.0454,-3.0481,-3.0481,-3.0468,-3.0564,-3.0579,-3.0643,-3.0524,-3.0808,-3.0817,-3.0825,-3.0915,-3.0934,-3.0949,0,0,0,0,0,-3.0282,-3.038,-3.0358,-3.0374,-3.0453,-3.0525,-3.0535,-3.0517,-3.0468,-3.0515,-3.0519,-3.0481,-3.0627,-3.0574,-3.0591,-3.0657,-3.0804,-3.0814,-3.0824,-3.0908,-3.093,-3.0949,0,0,0,0,0,0,-3.0366,-3.0383,-3.0358,-3.0467,-3.0495,-3.0512,-3.0571,-3.0541,-3.0584,-3.0574,-3.055,-3.0556,-3.0653,-3.0664,-3.0605,-3.0776,-3.0707,-3.0721,-3.0765,-3.0786,-3.0803,-3.0798,-3.053,0,0,0,0,0,-3.0397,-3.0454,-3.0466,-3.0561,-3.0576,-3.0571,-3.0602,-3.0586,-3.0614,-3.0626,-3.0637,-3.0665,-3.0717,-3.0752,-3.0801,-3.0917,-3.0921,-3.0971,-3.0987,-3.1001,-3.1013,-3.1074,-3.1096,-3.0862,-3.0862,-3.0862,0,0,-3.0462,-3.0478,-3.0516,-3.0578,-3.0598,-3.0658,-3.0582,-3.0648,-3.0692,-3.0636,-3.0722,-3.0731,-3.0762,-3.0866,-3.0912,-3.0878,-3.1079,-3.1014,-3.1025,-3.103,-3.1087,-3.1109,-3.1129,-3.0869,-3.0868,-3.0867,0,0,-3.0611,-3.0629,-3.071,-3.0731,-3.0762,-3.0758,-3.0778,-3.08,-3.0804,-3.089,-3.0849,-3.0901,-3.0991,-3.1014,-3.1038,-3.1195,-3.1161,-3.1212,-3.1299,-3.1359,-3.1377,-3.1394,-3.1449,-3.1469,-3.1224,-3.1224,-3.1224,0,-3.0688,-3.0776,-3.0755,-3.0825,-3.0853,-3.0804,-3.0885,-3.0907,-3.0953,-3.0973,-3.0934,-3.1046,-3.1063,-3.1171,-3.121,-3.1231,-3.1252,-3.1208,-3.1377,-3.1393,-3.1407,-3.146,-3.1481,-3.123,-3.1229,-3.1229,-3.1228,0,-3.0869,-3.0931,-3.0992,-3.1037,-3.1072,-3.1147,-3.1137,-3.1175,-3.1156,-3.1156,-3.1244,-3.1263,-3.1314,-3.1338,-3.132,-3.1444,-3.1421,-3.138,-3.1311,-3.1436,-3.1485,-3.1505,-3.1239,-3.1236,-3.1235,-3.1233,0,0,-3.1073,-3.1105,-3.1128,-3.1147,-3.1177,-3.1225,-3.1297,-3.1347,-3.138,-3.1413,-3.1472,-3.155,-3.1512,-3.1539,-3.1523,-3.1575,-3.1697,-3.1527,-3.1527,-3.1557,-3.1834,-3.1864,-3.1888,-3.1675,-3.1679,-3.1682,-3.1831,0,-3.1222,-3.1347,-3.133,-3.1451,-3.1507,-3.1462,-3.1525,-3.155,-3.1552,-3.16,-3.1601,-3.1657,-3.1602,-3.1618,-3.1668,-3.1672,-3.1752,-3.1661,-3.173,-3.1732,-3.1723,-3.1913,-3.1946,-3.2086,-3.185,-3.1853,-3.1855,0,-3.1412,-3.1452,-3.1578,-3.1599,-3.1622,-3.1679,-3.1723,-3.1769,-3.1797,-3.1794,-3.1824,-3.1799,-3.187,-3.18,-3.1898,-3.1837,-3.1864,-3.187,-3.1875,-3.188,-3.1801,-3.1923,-3.213,-3.2151,-3.1885,-3.1883,-3.1881,0,-3.1547,-3.1632,-3.1718,-3.1736,-3.1763,-3.1804,-3.1817,-3.1841,-3.1871,-3.191,-3.1929,-3.1976,-3.2001,-3.2037,-3.2024,-3.1974,-3.2125,-3.2054,-3.2125,-3.2125,-3.2158,-3.2156,-3.2372,-3.2177,-3.2177,-3.2176,-3.2176,0,-3.1715,-3.1794,-3.1779,-3.1832,-3.1919,-3.1898,-3.1985,-3.1992,-3.2013,-3.2066,-3.203,-3.2081,-3.2061,-3.211,-3.2101,-3.2183,-3.2195,-3.2195,-3.2191,-3.2198,-3.2198,-3.2215,-3.2204,-3.2182,-3.2181,-3.2179,-3.2179,0,-3.188,-3.1874,-3.1965,-3.1983,-3.1989,-3.2052,-3.2067,-3.2116,-3.2115,-3.2183,-3.2198,-3.2196,-3.2252,-3.2243,-3.2305,-3.2299,-3.2401,-3.2386,-3.2392,-3.2389,-3.2459,-3.2453,-3.2693,-3.2723,-3.251,-3.2512,-3.2513,0,-3.1988,-3.2047,-3.2071,-3.2104,-3.212,-3.2174,-3.2205,-3.2187,-3.2221,-3.2256,-3.2301,-3.2354,-3.2395,-3.2487,-3.2491,-3.2538,-3.2523,-3.2604,-3.253,-3.2535,-3.2524,-3.252,-3.2525,-3.2619,-3.2621,-3.2623,-3.2625,0,-3.2178,-3.2172,-3.2218,-3.2264,-3.2302,-3.2336,-3.2368,-3.2397,-3.2381,-3.2421,-3.2478,-3.251,-3.2573,-3.2626,-3.267,-3.2682,-3.2651,-3.2648,-3.2667,-3.2674,-3.2675,-3.2674,-3.2431,-3.2643,-3.2641,-3.264,-3.2639,-3.2638,-3.2317,-3.2367,-3.2392,-3.2445,-3.2466,-3.2496,-3.2543,-3.2548,-3.2595,-3.2645,-3.2631,-3.2696,-3.2721,-3.2777,-3.2794,-3.2844,-3.2814,-3.2841,-3.2848,-3.2855,-3.2863,-3.2667,-3.2852,-3.2851,-3.2851,-3.2851,-3.285,0,-3.2505,-3.2518,-3.2567,-3.2611,-3.2653,-3.262,-3.2652,-3.2689,-3.2746,-3.2772,-3.2813,-3.2878,-3.2929,-3.2937,-3.2985,-3.3023,-3.301,-3.3036,-3.3033,-3.3036,-3.2888,-3.2866,-3.3046,-3.3046,-3.3046,-3.3046,-3.3046,-3.3046,-3.2607,-3.2691,-3.2687,-3.278,-3.2793,-3.2856,-3.2877,-3.2904,-3.2925,-3.2999,-3.3041,-3.3046,-3.3064,-3.3113,-3.3158,-3.3159,-3.3178,-3.321,-3.3205,-3.3066,-3.3047,-3.3028,-3.3008,-3.3214,-3.3214,-3.3349,-3.335,-3.3351]},{"header":{"parameterUnit":"m.s-1","parameterCategory":1,"la1":30.2991,"la2":30.254,"lo1":-89.0895,"lo2":-89.0444,"dy":0.0017,"dx":0.0017,"nx":28,"ny":28,"refTime":"2023-11-23T03:00:00:Z","depth":0,"parameterNumber":3,"parameterNumberName":"V-component_of_WINDS"},"data":[0,0,0,0,0,0,0,0,0,0,0,0,0,0,0,0,0,0,0,0,0,0,0,0,0,0,0,0,0,0,0,0,0,0,0,0,0,0,0,0,0,0,0,0,0,0,0,0,0,0,0,0,0,0,0,0,0,0,-2.6238,-2.6239,0,-2.6296,-2.6297,-2.6297,-2.6265,-2.6263,-2.6261,-2.626,-2.6319,-2.6322,-2.6325,0,0,0,0,0,0,0,0,0,0,0,0,0,-2.6098,-2.6101,-2.6238,-2.6239,-2.6239,-2.6296,-2.6297,-2.6298,-2.6265,-2.6263,-2.6261,-2.6259,-2.6318,-2.6322,-2.6326,0,0,0,0,0,0,0,0,0,0,0,0,0,-2.6158,-2.6102,-2.6238,-2.623,-2.623,-2.6296,-2.6297,-2.6298,-2.6265,-2.6263,-2.6261,-2.6258,-2.6317,-2.6322,-2.6326,-2.6403,0,0,-2.634,-2.6342,0,0,0,0,0,0,0,0,-2.6154,-2.6163,-2.623,-2.6231,-2.6231,-2.6271,-2.6269,-2.6333,-2.6266,-2.6252,-2.626,-2.6257,-2.6305,-2.6311,-2.6327,-2.6406,-2.6409,-2.6341,-2.6344,-2.6346,-2.6347,0,0,0,0,0,0,0,-2.615,-2.616,-2.6261,-2.6231,-2.6232,-2.6223,-2.6229,-2.6281,-2.6291,-2.6253,-2.6251,-2.6258,-2.6305,-2.6322,-2.6328,-2.641,-2.6341,-2.6345,-2.6348,-2.635,-2.6554,-2.6557,0,0,0,0,0,0,-2.6147,-2.6157,-2.6259,-2.6263,-2.6186,-2.6228,-2.6234,-2.626,-2.6291,-2.6293,-2.626,-2.6256,-2.6316,-2.6323,-2.633,-2.6422,-2.6346,-2.635,-2.6353,-2.6551,-2.6555,-2.6557,0,0,0,0,0,0,-2.6144,-2.6156,-2.6257,-2.6209,-2.6221,-2.6233,-2.6262,-2.6263,-2.628,-2.6296,-2.6298,-2.6276,-2.6314,-2.6323,-2.6385,-2.6423,-2.6352,-2.6356,-2.6548,-2.6552,-2.6556,-2.6606,0,0,0,0,0,0,-2.614,-2.6155,-2.6185,-2.621,-2.6224,-2.6311,-2.6265,-2.6266,-2.6288,-2.6284,-2.6312,-2.6314,-2.6313,-2.6378,-2.639,-2.6428,-2.636,-2.6545,-2.655,-2.6555,-2.6601,-2.6611,-2.662,0,0,0,0,0,-2.6135,-2.6197,-2.6187,-2.6199,-2.6261,-2.6314,-2.6322,-2.6319,-2.6292,-2.6321,-2.6331,-2.6313,-2.6417,-2.6385,-2.6398,-2.6438,-2.6542,-2.6549,-2.6554,-2.6597,-2.6609,-2.662,0,0,0,0,0,0,-2.6176,-2.62,-2.6189,-2.6261,-2.6285,-2.6308,-2.6346,-2.6332,-2.6365,-2.636,-2.6355,-2.6362,-2.6426,-2.6438,-2.6402,-2.6514,-2.6476,-2.6484,-2.6504,-2.6516,-2.6525,-2.6521,-2.6364,0,0,0,0,0,-2.6193,-2.6234,-2.6253,-2.6314,-2.6327,-2.6334,-2.6357,-2.6353,-2.6378,-2.6388,-2.6403,-2.6428,-2.6466,-2.6491,-2.6528,-2.6603,-2.6608,-2.6637,-2.6646,-2.6654,-2.6662,-2.6701,-2.6714,-2.6577,-2.6577,-2.6577,0,0,-2.623,-2.6248,-2.6274,-2.6323,-2.6342,-2.6383,-2.6343,-2.6389,-2.642,-2.6395,-2.6454,-2.6466,-2.6493,-2.6562,-2.6593,-2.6574,-2.67,-2.6661,-2.6667,-2.6671,-2.6709,-2.6722,-2.6734,-2.6581,-2.658,-2.658,0,0,-2.6317,-2.6335,-2.6388,-2.6408,-2.6436,-2.644,-2.6453,-2.6478,-2.6484,-2.6543,-2.6525,-2.6562,-2.6628,-2.6648,-2.6667,-2.6762,-2.6746,-2.6773,-2.6823,-2.6862,-2.6873,-2.6883,-2.6916,-2.6928,-2.6781,-2.6781,-2.6781,0,-2.6359,-2.6422,-2.6417,-2.6465,-2.6487,-2.6466,-2.6519,-2.6538,-2.6577,-2.6592,-2.6571,-2.6653,-2.667,-2.6743,-2.6766,-2.6782,-2.6796,-2.677,-2.6872,-2.6881,-2.689,-2.6922,-2.6935,-2.6784,-2.6784,-2.6784,-2.6783,0,-2.6471,-2.6515,-2.6554,-2.6592,-2.6618,-2.6669,-2.6671,-2.6699,-2.6692,-2.6698,-2.6758,-2.6778,-2.6817,-2.6834,-2.6828,-2.6906,-2.6894,-2.6872,-2.6834,-2.6906,-2.6936,-2.6948,-2.6789,-2.6788,-2.6787,-2.6786,0,0,-2.6587,-2.6621,-2.6636,-2.6652,-2.6682,-2.6715,-2.6764,-2.6803,-2.6826,-2.6853,-2.6894,-2.695,-2.693,-2.6951,-2.6947,-2.6982,-2.7055,-2.6956,-2.6956,-2.6973,-2.7141,-2.7157,-2.7171,-2.7044,-2.7047,-2.7049,-2.7139,0,-2.6676,-2.6762,-2.6759,-2.6839,-2.6879,-2.6859,-2.6901,-2.6924,-2.6931,-2.6966,-2.6973,-2.7013,-2.6984,-2.6996,-2.7029,-2.7039,-2.7088,-2.7032,-2.7082,-2.7084,-2.7076,-2.7187,-2.7204,-2.7289,-2.715,-2.7152,-2.7154,0,-2.6792,-2.6823,-2.6907,-2.693,-2.6946,-2.6985,-2.7019,-2.7053,-2.7078,-2.708,-2.7104,-2.7094,-2.7144,-2.7103,-2.7171,-2.7133,-2.7153,-2.716,-2.7164,-2.7168,-2.7123,-2.7195,-2.7315,-2.7328,-2.7172,-2.7171,-2.7169,0,-2.6868,-2.693,-2.6988,-2.7003,-2.7032,-2.7059,-2.7072,-2.7094,-2.7118,-2.7148,-2.7163,-2.7198,-2.7218,-2.7245,-2.7245,-2.7216,-2.7313,-2.7273,-2.7317,-2.7317,-2.7338,-2.7337,-2.7464,-2.7351,-2.7351,-2.7351,-2.7351,0,-2.6968,-2.702,-2.7023,-2.7058,-2.7116,-2.7112,-2.7169,-2.7179,-2.7199,-2.7236,-2.7221,-2.7256,-2.7254,-2.7289,-2.729,-2.7345,-2.7354,-2.7357,-2.7357,-2.7359,-2.7358,-2.7372,-2.7366,-2.7354,-2.7354,-2.7353,-2.7352,0,-2.7062,-2.7066,-2.7128,-2.715,-2.7156,-2.7198,-2.7216,-2.725,-2.7255,-2.7302,-2.7313,-2.7321,-2.7362,-2.7365,-2.7412,-2.7412,-2.748,-2.7473,-2.7471,-2.747,-2.7513,-2.7509,-2.7654,-2.7672,-2.7547,-2.7549,-2.755,0,-2.7126,-2.7165,-2.7191,-2.7215,-2.7229,-2.7268,-2.7291,-2.7289,-2.7313,-2.7344,-2.7374,-2.7414,-2.7445,-2.7511,-2.7521,-2.7557,-2.7551,-2.7599,-2.7556,-2.7557,-2.7551,-2.7549,-2.7553,-2.7607,-2.7609,-2.761,-2.7611,0,-2.7238,-2.7238,-2.7273,-2.7308,-2.7336,-2.7363,-2.7389,-2.7409,-2.7409,-2.7438,-2.7479,-2.7504,-2.7552,-2.7591,-2.7626,-2.7639,-2.7625,-2.7624,-2.7636,-2.7638,-2.7636,-2.7638,-2.7494,-2.7621,-2.762,-2.7619,-2.7619,-2.7618,-2.7319,-2.7353,-2.7376,-2.7415,-2.7434,-2.7458,-2.749,-2.75,-2.7534,-2.7573,-2.7569,-2.7615,-2.7638,-2.7684,-2.7699,-2.7735,-2.7719,-2.7736,-2.774,-2.7745,-2.7749,-2.763,-2.7741,-2.7741,-2.7741,-2.7741,-2.774,0,-2.7431,-2.7444,-2.748,-2.7516,-2.7546,-2.753,-2.7558,-2.7584,-2.7625,-2.7647,-2.7678,-2.7726,-2.7763,-2.7776,-2.7813,-2.7839,-2.7833,-2.7849,-2.7847,-2.785,-2.7762,-2.7748,-2.7852,-2.7852,-2.7852,-2.7852,-2.7852,-2.7852,-2.7492,-2.7549,-2.7551,-2.7617,-2.763,-2.7675,-2.7692,-2.7714,-2.7732,-2.7785,-2.7816,-2.7825,-2.7843,-2.7881,-2.7915,-2.7917,-2.7932,-2.7949,-2.795,-2.7867,-2.7856,-2.7845,-2.7832,-2.7953,-2.7953,-2.8035,-2.8035,-2.8036]}]]